Probability
23 24 25 20 14 11 7 4 3 4 4 4 5 6 7 7 8 9 8 6 5 5 3 1 2 3 3 4 6 7 7 6 4 3 4 4 3 2 2 2 1 1 1
25 26 27 23 16 11 8 5 4 4 5 6 5 5 5 6 7 9 8 7 6 5 3 1 2 2 2 4 6 8 8 6 3 3 3 3 3 3 3 3 2 1 3
27 26 26 24 18 12 8 5 5 5 6 6 5 3 3 4 6 8 8 8 7 6 4 3 4 4 4 5 8 9 9 6 2 1 1 1 2 3 3 3 2 1 2
28 27 26 23 19 14 9 6 5 5 4 4 4 2 2 2 4 7 7 7 7 6 5 5 6 7 6 8 10 11 10 6 2 0 0 0 1 3 5 5 4 3 2
28 29 29 25 21 16 12 8 5 3 3 3 3 2 1 1 3 5 5 5 5 4 3 4 5 6 7 8 9 10 9 6 2 0 1 1 3 7 8 8 8 6 5
26 30 33 30 24 18 15 11 7 4 4 3 3 3 2 2 3 4 4 4 3 2 2 3 4 4 5 5 6 6 5 4 2 1 2 4 7 10 12 11 10 8 6
26 31 37 34 26 20 17 14 10 7 6 6 5 4 3 2 3 3 3 2 2 1 1 4 4 3 3 3 3 3 4 3 1 1 4 5 7 10 13 12 9 7 5
32 34 36 32 26 22 19 16 13 11 9 8 8 6 4 2 2 2 1 1 1 0 1 4 4 4 3 2 2 3 3 3 2 2 4 4 5 9 12 10 8 6 5
35 35 32 26 22 21 20 17 14 13 12 11 8 6 4 3 3 2 1 0 0 0 1 3 5 5 4 2 1 2 2 1 1 2 3 4 6 10 11 9 7 6 6
34 34 28 21 17 17 18 17 14 14 15 13 9 6 4 4 4 3 1 0 1 1 2 5 6 6 4 2 2 2 1 1 2 3 3 5 8 12 11 9 7 7 7
32 31 26 20 16 15 16 18 16 15 17 15 11 8 6 5 5 4 2 2 3 4 5 6 7 6 4 3 3 2 2 2 4 5 7 9 11 12 11 9 7 7 6
27 27 25 23 21 18 20 22 20 18 18 16 13 11 9 6 5 5 5 5 5 5 5 5 5 5 4 3 3 3 3 3 4 5 7 11 13 12 9 8 7 6 6
24 25 26 28 27 25 25 25 22 20 20 18 15 13 9 6 4 4 5 6 6 5 5 5 4 4 4 4 3 4 3 3 3 4 6 9 12 10 7 6 5 5 6
29 27 28 32 34 34 31 27 24 23 23 21 17 12 8 5 4 4 5 5 4 4 4 6 6 6 6 5 4 4 3 2 1 2 3 6 9 8 6 5 5 5 6
34 32 33 37 42 42 37 31 27 25 24 20 15 10 7 5 5 5 6 6 5 4 5 6 7 7 7 6 5 4 3 2 1 1 2 4 6 7 6 6 6 7 7
41 41 43 46 48 46 40 33 28 26 24 19 13 10 8 7 7 6 7 7 7 7 6 8 9 8 7 7 6 5 4 3 2 2 3 4 5 6 6 7 8 9 9
51 51 51 50 50 47 40 32 26 23 22 18 14 12 11 10 9 8 8 9 9 9 9 10 10 8 7 7 6 4 3 2 2 2 4 4 4 4 5 7 8 8 9
56 55 52 50 50 47 40 32 25 23 22 19 15 14 13 13 11 10 9 10 10 10 11 10 10 10 9 8 5 3 2 2 2 2 3 4 3 4 5 6 6 7 9
54 52 51 52 51 47 40 34 29 26 23 19 16 15 15 15 12 10 10 10 10 11 10 8 10 12 11 8 4 2 1 2 3 2 2 3 4 5 5 5 5 6 8
52 49 49 51 50 45 39 34 31 27 23 20 17 16 16 15 12 10 9 10 11 11 9 8 11 14 13 9 4 2 2 3 4 4 4 4 4 5 6 7 6 6 6
51 47 45 46 46 43 38 35 32 28 24 21 20 20 19 15 12 10 8 9 10 10 9 9 11 13 11 8 5 3 2 3 5 5 5 6 5 5 7 8 8 6 4
49 45 43 43 44 42 40 38 36 31 26 23 24 24 21 16 13 9 8 8 10 9 8 9 10 9 8 6 5 3 2 3 5 5 5 5 5 6 7 7 7 6 4
44 42 42 44 45 44 42 40 38 34 28 25 25 24 21 16 12 10 9 10 10 9 8 9 8 7 5 4 4 4 3 3 4 4 4 5 6 6 6 5 6 7 6
40 38 40 44 45 44 41 39 37 32 25 23 23 22 18 14 11 10 10 11 10 10 10 9 8 8 6 4 4 5 4 4 4 3 3 5 6 5 5 6 7 8 7
36 35 37 40 42 41 37 35 34 29 22 19 18 18 16 12 9 8 9 12 14 12 10 9 9 9 7 5 5 5 5 4 4 3 3 4 4 5 6 8 8 9 9
33 33 34 36 38 37 34 31 31 27 21 17 16 16 15 11 8 7 9 14 16 13 9 8 8 8 7 6 7 6 5 4 4 3 2 1 2 4 7 9 9 10 11
Wind_Speed
13 14 14 13 11 9 9 8 8 8 7 7 7 7 7 8 9 9 9 10 9 9 9 8 8 8 8 9 9 10 10 10 10 11 12 12 12 11 11 11 11 11 13
15 14 15 13 11 10 9 8 8 7 7 7 7 7 7 7 8 8 8 9 9 8 8 7 7 7 7 8 8 8 8 8 8 9 11 11 11 11 10 10 10 9 12
15 14 13 12 11 10 9 8 7 7 7 7 7 7 7 7 7 7 7 8 8 7 7 6 6 6 6 6 6 7 6 5 5 6 7 6 9 11 10 11 12 12 12
14 12 12 12 11 10 9 8 7 7 6 6 7 7 6 6 7 7 7 7 7 7 6 6 6 5 5 5 5 5 4 3 3 4 4 4 7 11 10 11 12 11 11
13 13 13 12 11 10 9 8 7 7 6 6 6 6 6 6 6 6 6 6 6 6 6 6 5 5 4 4 4 3 3 2 3 4 3 5 6 10 11 12 12 11 11
13 13 13 12 11 9 8 7 7 7 6 6 5 5 5 5 5 5 5 5 5 5 5 5 5 4 3 2 2 2 2 2 3 3 4 6 7 10 11 11 11 11 10
12 13 13 12 11 9 8 7 7 6 6 6 5 5 5 5 5 5 4 5 5 5 5 5 4 4 3 2 2 2 3 3 4 3 5 6 7 11 11 11 10 11 11
12 14 13 13 11 10 9 8 7 7 6 6 6 5 5 5 5 5 5 4 4 4 4 4 4 4 3 3 2 3 3 4 3 2 5 7 9 12 12 11 10 10 10
12 13 12 11 10 10 9 8 8 7 7 7 6 6 5 5 5 6 6 5 4 4 4 5 5 4 4 3 3 2 3 5 4 1 5 6 11 12 12 11 10 9 9
10 11 11 10 9 9 8 9 9 8 7 7 7 6 6 6 6 8 8 6 5 4 5 5 5 5 4 5 5 4 4 5 3 1 3 7 11 12 11 10 10 9 9
8 8 10 9 8 7 8 9 8 8 7 7 6 7 6 4 5 6 7 7 6 6 6 6 6 5 6 7 8 7 5 3 2 2 4 10 11 11 10 10 9 9 9
6 6 8 8 7 6 5 6 5 5 5 5 4 5 4 3 2 4 8 8 7 6 6 7 7 6 6 4 7 7 3 3 2 3 6 11 11 11 10 10 10 9 9
5 5 6 7 6 5 4 5 3 2 4 4 4 3 2 1 2 3 3 5 5 6 4 5 6 4 3 2 2 3 2 2 1 3 6 11 10 10 10 9 9 9 9
6 6 6 6 5 3 4 3 3 3 3 2 3 3 2 1 1 2 2 2 3 2 2 2 2 2 2 2 2 2 1 1 1 3 6 11 10 9 9 9 8 9 8
6 5 6 5 5 3 3 1 3 2 3 3 2 2 2 1 1 1 1 1 1 1 2 1 1 1 1 2 1 1 2 0 2 4 5 9 9 8 8 8 8 8 8
6 6 6 7 6 5 3 1 2 2 2 3 3 2 2 2 1 1 1 1 0 0 1 1 1 1 1 1 1 1 1 1 1 2 4 5 8 8 7 7 7 7 7
6 5 5 6 6 5 3 2 2 2 3 2 3 3 2 2 2 2 2 1 1 0 1 1 0 0 1 1 1 1 1 1 1 2 3 3 4 8 8 8 7 7 8
6 5 4 5 6 5 3 2 1 1 3 2 2 3 3 2 2 1 1 2 1 1 1 0 0 0 1 0 1 0 1 1 2 2 2 3 3 4 6 8 8 8 8
6 5 3 4 5 5 4 3 2 2 2 2 2 2 2 2 2 1 1 1 1 1 1 0 1 1 0 0 1 1 1 1 1 2 2 2 3 3 4 7 9 8 8
7 5 4 3 4 4 3 3 2 2 2 1 3 2 2 2 2 1 2 2 1 1 1 1 1 0 1 1 1 1 1 1 1 1 2 2 2 4 4 5 5 6 9
7 6 4 3 4 3 3 3 3 2 2 2 3 3 3 2 2 2 1 2 1 1 1 2 1 0 1 1 0 0 1 2 2 2 1 1 2 2 3 4 4 4 4
6 6 5 4 4 3 3 2 2 3 2 2 2 3 3 2 2 2 2 2 2 2 2 1 1 1 1 1 1 1 0 0 0 2 2 2 2 1 2 4 4 4 4
6 5 5 4 4 3 4 2 2 2 2 3 3 2 2 2 2 1 2 2 2 2 2 2 2 2 1 1 1 1 1 1 0 1 1 2 2 1 1 2 3 4 4
7 6 5 4 4 3 3 3 4 3 3 3 2 3 2 2 2 2 2 2 1 1 2 2 2 1 1 1 1 1 1 1 1 0 1 1 2 2 2 3 3 3 3
7 7 6 5 4 4 3 3 3 3 2 3 3 4 3 2 2 2 2 2 1 1 1 1 1 1 1 1 1 1 1 1 1 1 1 1 1 2 3 2 2 2 3
6 7 7 6 5 4 4 3 3 3 3 4 3 3 3 2 2 2 3 2 1 1 1 1 1 1 0 0 1 1 0 0 1 1 1 1 1 2 2 2 2 2 2
Wind_Direction
110 117 120 115 111 108 107 106 106 103 103 98 96 95 96 93 93 96 99 102 103 105 105 103 100 98 93 89 88 90 91 94 101 107 109 110 111 110 112 114 119 109 113
114 119 121 118 116 112 110 108 106 107 103 100 98 98 100 99 97 102 105 105 106 109 111 107 104 101 96 91 93 95 96 103 116 123 124 122 122 120 119 115 110 114 119
112 121 124 122 119 117 115 112 108 107 105 105 101 100 102 104 102 104 108 109 109 110 110 110 108 107 103 101 103 105 104 111 129 140 146 138 129 129 126 120 117 121 123
116 125 123 125 123 122 121 117 114 112 110 109 107 106 108 111 110 108 112 115 117 116 115 116 109 105 109 113 116 119 121 128 150 169 168 141 131 131 130 125 127 129 128
117 121 122 129 127 127 126 124 121 119 119 118 117 118 117 117 119 119 119 124 125 123 125 122 119 113 111 114 120 133 154 182 200 217 157 130 122 134 134 131 133 134 134
125 124 127 133 131 131 132 133 131 129 128 128 127 128 125 126 128 130 128 130 131 131 131 127 126 125 132 137 145 169 194 223 241 195 148 127 123 135 133 134 137 138 139
129 125 132 137 136 137 138 140 141 138 137 137 136 138 137 135 137 140 140 137 138 138 138 133 133 142 153 181 202 210 225 245 251 186 135 116 125 140 136 136 139 141 143
124 124 133 142 143 145 147 149 149 147 145 142 141 140 145 151 154 157 152 148 143 148 148 141 139 152 160 179 218 238 242 269 262 163 120 115 135 144 141 139 141 147 149
126 128 139 144 147 151 153 152 151 151 150 150 156 158 163 164 162 166 155 152 154 154 161 162 161 168 170 176 208 240 256 275 287 197 118 119 142 144 143 141 142 145 148
122 130 139 144 146 156 159 157 155 158 158 158 162 167 173 178 177 172 164 158 166 172 172 175 177 185 194 202 218 230 248 277 255 137 111 124 138 143 148 149 150 151 151
127 139 138 142 149 159 155 148 157 163 166 165 169 175 181 195 178 176 157 159 173 187 187 186 191 200 208 213 220 226 242 247 205 130 115 131 138 144 150 156 160 162 161
138 142 137 141 147 156 148 140 163 167 161 182 169 177 195 199 170 158 144 155 169 188 193 193 204 206 215 213 209 218 238 233 193 122 129 137 141 146 153 161 165 167 168
140 137 130 133 134 141 133 148 156 156 157 184 159 166 186 196 152 144 152 160 180 192 200 192 205 215 211 212 211 202 215 247 127 124 137 139 143 150 157 163 165 166 166
143 146 138 132 125 126 121 143 149 153 158 151 140 168 177 182 157 146 157 166 185 181 179 193 192 194 228 229 223 208 169 216 119 122 141 142 146 155 164 168 172 173 172
140 147 135 126 116 109 101 131 134 143 146 131 148 164 170 161 138 121 120 145 182 166 161 182 201 170 222 235 236 150 151 149 96 113 134 150 157 163 166 175 176 176 176
143 146 136 133 123 118 114 113 97 130 124 132 143 143 150 130 125 128 153 148 218 122 113 167 181 182 205 214 210 111 124 109 101 123 138 153 168 171 169 173 173 176 179
131 129 130 136 125 124 137 153 135 135 125 122 128 135 136 133 134 151 146 146 131 112 102 104 116 206 189 187 149 113 129 121 129 142 150 158 168 179 178 176 175 180 182
128 129 145 142 132 135 138 145 110 111 112 125 134 134 139 144 146 157 137 124 132 126 102 124 164 87 86 144 114 132 127 131 155 165 164 159 160 165 180 185 187 190 192
122 128 133 121 136 143 149 143 132 107 108 133 123 127 137 157 158 160 126 113 145 133 130 163 90 96 168 157 167 184 167 146 168 176 165 169 167 157 163 183 193 199 202
127 125 115 119 129 140 144 141 135 120 123 133 118 122 134 146 148 155 140 148 179 134 105 89 80 91 195 218 242 159 164 178 179 164 194 169 165 174 172 174 186 201 206
129 129 137 144 130 143 147 155 160 147 151 144 132 131 138 147 162 160 146 153 171 145 127 116 123 209 198 179 168 326 211 193 164 173 184 176 179 182 175 179 183 184 194
132 137 144 148 143 151 145 156 159 147 156 137 119 130 141 146 161 164 149 164 159 141 135 155 162 209 237 195 170 191 235 116 263 189 178 192 185 196 193 197 186 179 187
136 146 141 140 141 154 152 150 145 137 140 126 135 135 143 151 160 155 151 157 151 162 159 187 182 185 227 269 198 189 184 175 286 229 205 189 174 201 207 205 193 182 181
148 150 136 139 141 148 153 163 164 153 145 134 138 132 135 130 138 138 134 131 147 161 157 199 190 187 206 231 245 237 197 139 177 240 270 201 195 204 214 225 202 188 173
146 147 139 139 142 149 159 156 155 142 137 133 133 131 134 122 119 120 120 118 117 140 160 200 152 167 240 246 260 243 192 170 208 189 233 249 256 221 200 206 188 182 178
149 145 139 141 141 152 157 157 153 140 138 136 141 142 144 133 118 109 106 98 105 134 156 166 171 182 231 208 313 296 224 212 216 209 220 224 243 254 221 193 190 189 185